Year,Month,Day,Hour,Minute,Value (Times are PST for temperature in C)
2006,09,03,00,00,16.20
2006,09,03,00,01,16.10
2006,09,03,00,02,16.10
2006,09,03,00,03,16.10
2006,09,03,00,04,16.10
2006,09,03,00,05,15.90
2006,09,03,00,06,15.90
2006,09,03,00,07,15.90
2006,09,03,00,08,15.80
2006,09,03,00,09,15.80
2006,09,03,00,10,15.80
2006,09,03,00,11,15.80
2006,09,03,00,12,15.80
2006,09,03,00,13,15.80
2006,09,03,00,14,15.80
2006,09,03,00,15,15.80
2006,09,03,00,16,15.80
2006,09,03,00,17,15.80
2006,09,03,00,18,15.80
2006,09,03,00,19,15.90
2006,09,03,00,20,15.90
2006,09,03,00,21,16.10
2006,09,03,00,22,16.10
2006,09,03,00,23,16.10
2006,09,03,00,24,16.10
2006,09,03,00,25,16.10
2006,09,03,00,26,16.10
2006,09,03,00,27,16.10
2006,09,03,00,28,16.10
2006,09,03,00,29,16.20
2006,09,03,00,30,16.20
2006,09,03,00,31,16.20
2006,09,03,00,32,16.20
2006,09,03,00,33,16.20
2006,09,03,00,34,16.20
2006,09,03,00,35,16.20
2006,09,03,00,36,16.10
2006,09,03,00,37,16.10
2006,09,03,00,38,16.10
2006,09,03,00,39,16.10
2006,09,03,00,40,16.10
2006,09,03,00,41,16.10
2006,09,03,00,42,16.10
2006,09,03,00,43,16.10
2006,09,03,00,44,16.10
2006,09,03,00,45,16.00
2006,09,03,00,46,15.90
2006,09,03,00,47,15.90
2006,09,03,00,48,15.90
2006,09,03,00,49,15.90
2006,09,03,00,50,15.90
2006,09,03,00,51,16.00
2006,09,03,00,52,16.10
2006,09,03,00,53,16.10
2006,09,03,00,54,16.10
2006,09,03,00,55,16.10
2006,09,03,00,56,16.20
2006,09,03,00,57,16.20
2006,09,03,00,58,16.20
2006,09,03,00,59,16.20
2006,09,03,01,00,16.20
2006,09,03,01,01,16.20
2006,09,03,01,02,16.20
2006,09,03,01,03,16.20
2006,09,03,01,04,16.20
2006,09,03,01,05,16.20
2006,09,03,01,06,16.20
2006,09,03,01,07,16.20
2006,09,03,01,08,16.20
2006,09,03,01,09,16.10
2006,09,03,01,10,16.10
2006,09,03,01,11,16.10
2006,09,03,01,12,16.10
2006,09,03,01,13,16.10
2006,09,03,01,14,16.00
2006,09,03,01,15,15.90
2006,09,03,01,16,15.90
2006,09,03,01,17,15.90
2006,09,03,01,18,15.80
2006,09,03,01,19,15.80
2006,09,03,01,20,15.80
2006,09,03,01,21,15.80
2006,09,03,01,22,15.80
2006,09,03,01,23,15.80
2006,09,03,01,24,15.70
2006,09,03,01,25,15.70
2006,09,03,01,26,15.70
2006,09,03,01,27,15.70
2006,09,03,01,28,15.70
2006,09,03,01,29,15.70
2006,09,03,01,30,15.70
2006,09,03,01,31,15.70
2006,09,03,01,32,15.70
2006,09,03,01,33,15.70
2006,09,03,01,34,15.60
2006,09,03,01,35,15.60
2006,09,03,01,36,15.60
2006,09,03,01,37,15.50
2006,09,03,01,38,15.50
2006,09,03,01,39,15.50
2006,09,03,01,40,15.50
2006,09,03,01,41,15.40
2006,09,03,01,42,15.40
2006,09,03,01,43,15.30
2006,09,03,01,44,15.30
2006,09,03,01,45,15.30
2006,09,03,01,46,15.30
2006,09,03,01,47,15.30
2006,09,03,01,48,15.20
2006,09,03,01,49,15.20
2006,09,03,01,50,15.20
2006,09,03,01,51,15.20
2006,09,03,01,52,15.10
2006,09,03,01,53,15.10
2006,09,03,01,54,15.10
2006,09,03,01,55,15.00
2006,09,03,01,56,15.00
2006,09,03,01,57,14.90
2006,09,03,01,58,14.90
2006,09,03,01,59,14.90
2006,09,03,02,00,14.80
2006,09,03,02,01,14.80
2006,09,03,02,02,14.80
2006,09,03,02,03,14.80
2006,09,03,02,04,14.80
2006,09,03,02,05,14.70
2006,09,03,02,06,14.70
2006,09,03,02,07,14.70
2006,09,03,02,08,14.60
2006,09,03,02,09,14.60
2006,09,03,02,10,14.50
2006,09,03,02,11,14.50
2006,09,03,02,12,14.50
2006,09,03,02,13,14.40
2006,09,03,02,14,14.40
2006,09,03,02,15,14.40
2006,09,03,02,16,14.30
2006,09,03,02,17,14.30
2006,09,03,02,18,14.20
2006,09,03,02,19,14.20
2006,09,03,02,20,14.20
2006,09,03,02,21,14.20
2006,09,03,02,22,14.20
2006,09,03,02,23,14.20
2006,09,03,02,24,14.20
2006,09,03,02,25,14.20
2006,09,03,02,26,14.20
2006,09,03,02,27,14.20
2006,09,03,02,28,14.20
2006,09,03,02,29,14.20
2006,09,03,02,30,14.20
2006,09,03,02,31,14.20
2006,09,03,02,32,14.20
2006,09,03,02,33,14.20
2006,09,03,02,34,14.20
2006,09,03,02,35,14.20
2006,09,03,02,36,14.20
2006,09,03,02,37,14.20
2006,09,03,02,38,14.20
2006,09,03,02,39,14.20
2006,09,03,02,40,14.20
2006,09,03,02,41,14.20
2006,09,03,02,42,14.10
2006,09,03,02,43,14.10
2006,09,03,02,44,14.10
2006,09,03,02,45,14.00
2006,09,03,02,46,14.00
2006,09,03,02,47,14.00
2006,09,03,02,48,13.90
2006,09,03,02,49,13.90
2006,09,03,02,50,13.90
2006,09,03,02,51,13.80
2006,09,03,02,52,13.80
2006,09,03,02,53,13.70
2006,09,03,02,54,13.70
2006,09,03,02,55,13.70
2006,09,03,02,56,13.70
2006,09,03,02,57,13.70
2006,09,03,02,58,13.70
2006,09,03,02,59,13.70
2006,09,03,03,00,13.70
2006,09,03,03,01,13.70
2006,09,03,03,02,13.80
2006,09,03,03,03,13.80
2006,09,03,03,04,13.80
2006,09,03,03,05,13.80
2006,09,03,03,06,13.80
2006,09,03,03,07,13.80
2006,09,03,03,08,13.80
2006,09,03,03,09,13.80
2006,09,03,03,10,13.80
2006,09,03,03,11,13.80
2006,09,03,03,12,13.80
2006,09,03,03,13,13.90
2006,09,03,03,14,13.90
2006,09,03,03,15,13.90
2006,09,03,03,16,13.90
2006,09,03,03,17,13.90
2006,09,03,03,18,13.80
2006,09,03,03,19,13.80
2006,09,03,03,20,13.80
2006,09,03,03,21,13.80
2006,09,03,03,22,13.80
2006,09,03,03,23,13.70
2006,09,03,03,24,13.70
2006,09,03,03,25,13.70
2006,09,03,03,26,13.70
2006,09,03,03,27,13.70
2006,09,03,03,28,13.60
2006,09,03,03,29,13.60
2006,09,03,03,30,13.60
2006,09,03,03,31,13.50
2006,09,03,03,32,13.50
2006,09,03,03,33,13.50
2006,09,03,03,34,13.40
2006,09,03,03,35,13.40
2006,09,03,03,36,13.40
2006,09,03,03,37,13.30
2006,09,03,03,38,13.30
2006,09,03,03,39,13.30
2006,09,03,03,40,13.30
2006,09,03,03,41,13.30
2006,09,03,03,42,13.20
2006,09,03,03,43,13.20
2006,09,03,03,44,13.20
2006,09,03,03,45,13.20
2006,09,03,03,46,13.10
2006,09,03,03,47,13.10
2006,09,03,03,48,13.10
2006,09,03,03,49,13.00
2006,09,03,03,50,13.00
2006,09,03,03,51,13.00
2006,09,03,03,52,12.90
2006,09,03,03,53,12.90
2006,09,03,03,54,12.90
2006,09,03,03,55,12.90
2006,09,03,03,56,12.90
2006,09,03,03,57,12.90
2006,09,03,03,58,12.80
2006,09,03,03,59,12.80
2006,09,03,04,00,12.80
2006,09,03,04,01,12.80
2006,09,03,04,02,12.80
2006,09,03,04,03,12.80
2006,09,03,04,04,12.80
2006,09,03,04,05,12.80
2006,09,03,04,06,12.80
2006,09,03,04,07,12.80
2006,09,03,04,08,12.80
2006,09,03,04,09,12.80
2006,09,03,04,10,12.80
2006,09,03,04,11,12.80
2006,09,03,04,12,12.80
2006,09,03,04,13,12.80
2006,09,03,04,14,12.80
2006,09,03,04,15,12.90
2006,09,03,04,16,12.90
2006,09,03,04,17,12.90
2006,09,03,04,18,12.90
2006,09,03,04,19,12.90
2006,09,03,04,20,12.90
2006,09,03,04,21,12.90
2006,09,03,04,22,12.90
2006,09,03,04,23,12.90
2006,09,03,04,24,12.90
2006,09,03,04,25,12.90
2006,09,03,04,26,12.90
2006,09,03,04,27,12.90
2006,09,03,04,28,12.90
2006,09,03,04,29,12.90
2006,09,03,04,30,12.90
2006,09,03,04,31,12.90
2006,09,03,04,32,12.80
2006,09,03,04,33,12.80
2006,09,03,04,34,12.80
2006,09,03,04,35,12.80
2006,09,03,04,36,12.80
2006,09,03,04,37,12.80
2006,09,03,04,38,12.80
2006,09,03,04,39,12.80
2006,09,03,04,40,12.80
2006,09,03,04,41,12.80
2006,09,03,04,42,12.70
2006,09,03,04,43,12.70
2006,09,03,04,44,12.70
2006,09,03,04,45,12.70
2006,09,03,04,46,12.60
2006,09,03,04,47,12.60
2006,09,03,04,48,12.60
2006,09,03,04,49,12.60
2006,09,03,04,50,12.60
2006,09,03,04,51,12.50
2006,09,03,04,52,12.50
2006,09,03,04,53,12.50
2006,09,03,04,54,12.50
2006,09,03,04,55,12.40
2006,09,03,04,56,12.40
2006,09,03,04,57,12.40
2006,09,03,04,58,12.40
2006,09,03,04,59,12.30
2006,09,03,05,00,12.30
2006,09,03,05,01,12.30
2006,09,03,05,02,12.30
2006,09,03,05,03,12.30
2006,09,03,05,04,12.20
2006,09,03,05,05,12.20
2006,09,03,05,06,12.20
2006,09,03,05,07,12.10
2006,09,03,05,08,12.10
2006,09,03,05,09,12.10
2006,09,03,05,10,12.10
2006,09,03,05,11,12.10
2006,09,03,05,12,12.00
2006,09,03,05,13,12.00
2006,09,03,05,14,12.00
2006,09,03,05,15,12.00
2006,09,03,05,16,12.10
2006,09,03,05,17,12.10
2006,09,03,05,18,12.10
2006,09,03,05,19,12.10
2006,09,03,05,20,12.20
2006,09,03,05,21,12.20
2006,09,03,05,22,12.20
2006,09,03,05,23,12.20
2006,09,03,05,24,12.20
2006,09,03,05,25,12.30
2006,09,03,05,26,12.30
2006,09,03,05,27,12.30
2006,09,03,05,28,12.30
2006,09,03,05,29,12.30
2006,09,03,05,30,12.20
2006,09,03,05,31,12.20
2006,09,03,05,32,12.20
2006,09,03,05,33,12.10
2006,09,03,05,34,12.10
2006,09,03,05,35,12.10
2006,09,03,05,36,12.10
2006,09,03,05,37,12.00
2006,09,03,05,38,12.00
2006,09,03,05,39,12.00
2006,09,03,05,40,12.00
2006,09,03,05,41,12.00
2006,09,03,05,42,12.00
2006,09,03,05,43,12.00
2006,09,03,05,44,12.00
2006,09,03,05,45,12.00
2006,09,03,05,46,12.00
2006,09,03,05,47,12.00
2006,09,03,05,48,12.00
2006,09,03,05,49,12.00
2006,09,03,05,50,12.00
2006,09,03,05,51,12.00
2006,09,03,05,52,12.00
2006,09,03,05,53,12.00
2006,09,03,05,54,12.00
2006,09,03,05,55,12.00
2006,09,03,05,56,11.90
2006,09,03,05,57,11.90
2006,09,03,05,58,11.90
2006,09,03,05,59,11.90
2006,09,03,06,00,11.80
2006,09,03,06,01,11.80
2006,09,03,06,02,11.80
2006,09,03,06,03,11.80
2006,09,03,06,04,11.80
2006,09,03,06,05,11.70
2006,09,03,06,06,11.70
2006,09,03,06,07,11.70
2006,09,03,06,08,11.70
2006,09,03,06,09,11.60
2006,09,03,06,10,11.60
2006,09,03,06,11,11.60
2006,09,03,06,12,11.60
2006,09,03,06,13,11.60
2006,09,03,06,14,11.60
2006,09,03,06,15,11.60
2006,09,03,06,16,11.60
2006,09,03,06,17,11.60
2006,09,03,06,18,11.60
2006,09,03,06,19,11.60
2006,09,03,06,20,11.50
2006,09,03,06,21,11.40
2006,09,03,06,22,11.40
2006,09,03,06,23,11.40
2006,09,03,06,24,11.40
2006,09,03,06,25,11.40
2006,09,03,06,26,11.40
2006,09,03,06,27,11.40
2006,09,03,06,28,11.40
2006,09,03,06,29,11.40
2006,09,03,06,30,11.40
2006,09,03,06,31,11.30
2006,09,03,06,32,11.30
2006,09,03,06,33,11.30
2006,09,03,06,34,11.30
2006,09,03,06,35,11.30
2006,09,03,06,36,11.30
2006,09,03,06,37,11.30
2006,09,03,06,38,11.30
2006,09,03,06,39,11.30
2006,09,03,06,40,11.30
2006,09,03,06,41,11.30
2006,09,03,06,42,11.30
2006,09,03,06,43,11.30
2006,09,03,06,44,11.30
2006,09,03,06,45,11.30
2006,09,03,06,46,11.20
2006,09,03,06,47,11.20
2006,09,03,06,48,11.20
2006,09,03,06,49,11.20
2006,09,03,06,50,11.20
2006,09,03,06,51,11.20
2006,09,03,06,52,11.20
2006,09,03,06,53,11.20
2006,09,03,06,54,11.30
2006,09,03,06,55,11.30
2006,09,03,06,56,11.30
2006,09,03,06,57,11.30
2006,09,03,06,58,11.40
2006,09,03,06,59,11.40
2006,09,03,07,00,11.40
2006,09,03,07,01,11.40
2006,09,03,07,02,11.40
2006,09,03,07,03,11.40
2006,09,03,07,04,11.40
2006,09,03,07,05,11.40
2006,09,03,07,06,11.40
2006,09,03,07,07,11.40
2006,09,03,07,08,11.40
2006,09,03,07,09,11.30
2006,09,03,07,10,11.30
2006,09,03,07,11,11.30
2006,09,03,07,12,11.30
2006,09,03,07,13,11.30
2006,09,03,07,14,11.20
2006,09,03,07,15,11.20
2006,09,03,07,16,11.20
2006,09,03,07,17,11.20
2006,09,03,07,18,11.20
2006,09,03,07,19,11.20
2006,09,03,07,20,11.20
2006,09,03,07,21,11.20
2006,09,03,07,22,11.20
2006,09,03,07,23,11.20
2006,09,03,07,24,11.30
2006,09,03,07,25,11.30
2006,09,03,07,26,11.30
2006,09,03,07,27,11.30
2006,09,03,07,28,11.30
2006,09,03,07,29,11.30
2006,09,03,07,30,11.40
2006,09,03,07,31,11.40
2006,09,03,07,32,11.40
2006,09,03,07,33,11.40
2006,09,03,07,34,11.40
2006,09,03,07,35,11.50
2006,09,03,07,36,11.60
2006,09,03,07,37,11.60
2006,09,03,07,38,11.60
2006,09,03,07,39,11.60
2006,09,03,07,40,11.60
2006,09,03,07,41,11.60
2006,09,03,07,42,11.60
2006,09,03,07,43,11.70
2006,09,03,07,44,11.70
2006,09,03,07,45,11.80
2006,09,03,07,46,11.80
2006,09,03,07,47,11.80
2006,09,03,07,48,11.80
2006,09,03,07,49,11.90
2006,09,03,07,50,11.90
2006,09,03,07,51,12.00
2006,09,03,07,52,12.00
2006,09,03,07,53,12.10
2006,09,03,07,54,12.10
2006,09,03,07,55,12.20
2006,09,03,07,56,12.20
2006,09,03,07,57,12.20
2006,09,03,07,58,12.30
2006,09,03,07,59,12.30
2006,09,03,08,00,12.30
2006,09,03,08,01,12.40
2006,09,03,08,02,12.40
2006,09,03,08,03,12.50
2006,09,03,08,04,12.60
2006,09,03,08,05,12.60
2006,09,03,08,06,12.70
2006,09,03,08,07,12.80
2006,09,03,08,08,12.80
2006,09,03,08,09,13.00
2006,09,03,08,10,13.10
2006,09,03,08,11,13.20
2006,09,03,08,12,13.30
2006,09,03,08,13,13.40
2006,09,03,08,14,13.50
2006,09,03,08,15,13.70
2006,09,03,08,16,13.80
2006,09,03,08,17,14.00
2006,09,03,08,18,14.20
2006,09,03,08,19,14.30
2006,09,03,08,20,14.50
2006,09,03,08,21,14.60
2006,09,03,08,22,14.70
2006,09,03,08,23,14.80
2006,09,03,08,24,14.90
2006,09,03,08,25,15.00
2006,09,03,08,26,15.20
2006,09,03,08,27,15.20
2006,09,03,08,28,15.30
2006,09,03,08,29,15.40
2006,09,03,08,30,15.50
2006,09,03,08,31,15.60
2006,09,03,08,32,15.80
2006,09,03,08,33,15.90
2006,09,03,08,34,16.00
2006,09,03,08,35,16.10
2006,09,03,08,36,16.30
2006,09,03,08,37,16.50
2006,09,03,08,38,16.80
2006,09,03,08,39,17.00
2006,09,03,08,40,17.20
2006,09,03,08,41,17.40
2006,09,03,08,42,17.60
2006,09,03,08,43,17.70
2006,09,03,08,44,17.80
2006,09,03,08,45,18.00
2006,09,03,08,46,18.20
2006,09,03,08,47,18.40
2006,09,03,08,48,18.60
2006,09,03,08,49,18.80
2006,09,03,08,50,18.90
2006,09,03,08,51,19.10
2006,09,03,08,52,19.20
2006,09,03,08,53,19.30
2006,09,03,08,54,19.50
2006,09,03,08,55,19.60
2006,09,03,08,56,19.80
2006,09,03,08,57,19.90
2006,09,03,08,58,20.00
2006,09,03,08,59,20.10
2006,09,03,09,00,20.20
2006,09,03,09,01,20.50
2006,09,03,09,02,20.60
2006,09,03,09,03,20.60
2006,09,03,09,04,20.50
2006,09,03,09,05,20.40
2006,09,03,09,06,20.30
2006,09,03,09,07,20.20
2006,09,03,09,08,20.00
2006,09,03,09,09,19.90
2006,09,03,09,10,19.80
2006,09,03,09,11,19.60
2006,09,03,09,12,19.50
2006,09,03,09,13,19.40
2006,09,03,09,14,19.30
2006,09,03,09,15,19.20
2006,09,03,09,16,19.00
2006,09,03,09,17,18.90
2006,09,03,09,18,18.80
2006,09,03,09,19,18.80
2006,09,03,09,20,18.80
2006,09,03,09,21,18.70
2006,09,03,09,22,18.70
2006,09,03,09,23,18.70
2006,09,03,09,24,18.70
2006,09,03,09,25,18.80
2006,09,03,09,26,18.80
2006,09,03,09,27,18.90
2006,09,03,09,28,18.90
2006,09,03,09,29,18.90
2006,09,03,09,30,18.90
2006,09,03,09,31,18.80
2006,09,03,09,32,18.80
2006,09,03,09,33,18.80
2006,09,03,09,34,18.90
2006,09,03,09,35,18.90
2006,09,03,09,36,19.00
2006,09,03,09,37,19.10
2006,09,03,09,38,19.10
2006,09,03,09,39,19.10
2006,09,03,09,40,19.20
2006,09,03,09,41,19.30
2006,09,03,09,42,19.40
2006,09,03,09,43,19.50
2006,09,03,09,44,19.60
2006,09,03,09,45,19.70
2006,09,03,09,46,19.80
2006,09,03,09,47,19.90
2006,09,03,09,48,20.00
2006,09,03,09,49,20.20
2006,09,03,09,50,20.20
2006,09,03,09,51,20.30
2006,09,03,09,52,20.40
2006,09,03,09,53,20.50
2006,09,03,09,54,20.60
2006,09,03,09,55,20.70
2006,09,03,09,56,20.80
2006,09,03,09,57,21.00
2006,09,03,09,58,21.10
2006,09,03,09,59,21.20
2006,09,03,10,00,21.20
2006,09,03,10,01,21.30
2006,09,03,10,02,21.30
2006,09,03,10,03,21.30
2006,09,03,10,04,21.30
2006,09,03,10,05,21.40
2006,09,03,10,06,21.50
2006,09,03,10,07,21.60
2006,09,03,10,08,21.60
2006,09,03,10,09,21.60
2006,09,03,10,10,21.60
2006,09,03,10,11,21.70
2006,09,03,10,12,21.80
2006,09,03,10,13,21.80
2006,09,03,10,14,21.90
2006,09,03,10,15,21.90
2006,09,03,10,16,21.90
2006,09,03,10,17,21.90
2006,09,03,10,18,21.90
2006,09,03,10,19,21.90
2006,09,03,10,20,21.90
2006,09,03,10,21,21.90
2006,09,03,10,22,21.90
2006,09,03,10,23,21.90
2006,09,03,10,24,22.00
2006,09,03,10,25,22.00
2006,09,03,10,26,22.00
2006,09,03,10,27,22.00
2006,09,03,10,28,22.10
2006,09,03,10,29,22.10
2006,09,03,10,30,22.10
2006,09,03,10,31,22.20
2006,09,03,10,32,22.20
2006,09,03,10,33,22.30
2006,09,03,10,34,22.40
2006,09,03,10,35,22.50
2006,09,03,10,36,22.60
2006,09,03,10,37,22.70
2006,09,03,10,38,22.80
2006,09,03,10,39,22.80
2006,09,03,10,40,22.80
2006,09,03,10,41,22.90
2006,09,03,10,42,22.90
2006,09,03,10,43,22.90
2006,09,03,10,44,22.70
2006,09,03,10,45,22.60
2006,09,03,10,46,22.50
2006,09,03,10,47,22.50
2006,09,03,10,48,22.50
2006,09,03,10,49,22.50
2006,09,03,10,50,22.50
2006,09,03,10,51,22.40
2006,09,03,10,52,22.40
2006,09,03,10,53,22.40
2006,09,03,10,54,22.40
2006,09,03,10,55,22.30
2006,09,03,10,56,22.30
2006,09,03,10,57,22.30
2006,09,03,10,58,22.20
2006,09,03,10,59,22.10
2006,09,03,11,00,22.00
2006,09,03,11,01,21.90
2006,09,03,11,02,21.80
2006,09,03,11,03,21.70
2006,09,03,11,04,21.70
2006,09,03,11,05,21.70
2006,09,03,11,06,21.70
2006,09,03,11,07,21.70
2006,09,03,11,08,21.80
2006,09,03,11,09,21.80
2006,09,03,11,10,21.80
2006,09,03,11,11,21.80
2006,09,03,11,12,21.70
2006,09,03,11,13,21.60
2006,09,03,11,14,21.60
2006,09,03,11,15,21.60
2006,09,03,11,16,21.70
2006,09,03,11,17,21.70
2006,09,03,11,18,21.70
2006,09,03,11,19,21.60
2006,09,03,11,20,21.60
2006,09,03,11,21,21.50
2006,09,03,11,22,21.40
2006,09,03,11,23,21.50
2006,09,03,11,24,21.60
2006,09,03,11,25,21.70
2006,09,03,11,26,21.80
2006,09,03,11,27,21.90
2006,09,03,11,28,22.00
2006,09,03,11,29,22.00
2006,09,03,11,30,21.90
2006,09,03,11,31,21.80
2006,09,03,11,32,21.80
2006,09,03,11,33,21.70
2006,09,03,11,34,21.60
2006,09,03,11,35,21.40
2006,09,03,11,36,21.40
2006,09,03,11,37,21.50
2006,09,03,11,38,21.60
2006,09,03,11,39,21.60
2006,09,03,11,40,21.60
2006,09,03,11,41,21.50
2006,09,03,11,42,21.40
2006,09,03,11,43,21.30
2006,09,03,11,44,21.40
2006,09,03,11,45,21.40
2006,09,03,11,46,21.30
2006,09,03,11,47,21.30
2006,09,03,11,48,21.30
2006,09,03,11,49,21.30
2006,09,03,11,50,21.30
2006,09,03,11,51,21.30
2006,09,03,11,52,21.30
2006,09,03,11,53,21.40
2006,09,03,11,54,21.40
2006,09,03,11,55,21.40
2006,09,03,11,56,21.40
2006,09,03,11,57,21.30
2006,09,03,11,58,21.40
2006,09,03,11,59,21.50
2006,09,03,12,00,21.60
2006,09,03,12,01,21.70
2006,09,03,12,02,21.70
2006,09,03,12,03,21.80
2006,09,03,12,04,21.70
2006,09,03,12,05,21.70
2006,09,03,12,06,21.70
2006,09,03,12,07,21.80
2006,09,03,12,08,21.70
2006,09,03,12,09,21.70
2006,09,03,12,10,21.70
2006,09,03,12,11,21.70
2006,09,03,12,12,21.60
2006,09,03,12,13,21.60
2006,09,03,12,14,21.60
2006,09,03,12,15,21.60
2006,09,03,12,16,21.70
2006,09,03,12,17,21.80
2006,09,03,12,18,21.80
2006,09,03,12,19,21.80
2006,09,03,12,20,21.70
2006,09,03,12,21,21.60
2006,09,03,12,22,21.60
2006,09,03,12,23,21.60
2006,09,03,12,24,21.60
2006,09,03,12,25,21.60
2006,09,03,12,26,21.70
2006,09,03,12,27,21.70
2006,09,03,12,28,21.80
2006,09,03,12,29,21.80
2006,09,03,12,30,21.90
2006,09,03,12,31,22.00
2006,09,03,12,32,22.00
2006,09,03,12,33,22.10
2006,09,03,12,34,22.20
2006,09,03,12,35,22.40
2006,09,03,12,36,22.50
2006,09,03,12,37,22.60
2006,09,03,12,38,22.70
2006,09,03,12,39,22.80
2006,09,03,12,40,22.80
2006,09,03,12,41,22.80
2006,09,03,12,42,22.70
2006,09,03,12,43,22.70
2006,09,03,12,44,22.70
2006,09,03,12,45,22.70
2006,09,03,12,46,22.80
2006,09,03,12,47,22.80
2006,09,03,12,48,22.80
2006,09,03,12,49,22.80
2006,09,03,12,50,22.70
2006,09,03,12,51,22.70
2006,09,03,12,52,22.70
2006,09,03,12,53,22.70
2006,09,03,12,54,22.70
2006,09,03,12,55,22.70
2006,09,03,12,56,22.60
2006,09,03,12,57,22.50
2006,09,03,12,58,22.50
2006,09,03,12,59,22.50
2006,09,03,13,00,22.60
2006,09,03,13,01,22.60
2006,09,03,13,02,22.70
2006,09,03,13,03,22.80
2006,09,03,13,04,22.80
2006,09,03,13,05,22.80
2006,09,03,13,06,22.80
2006,09,03,13,07,22.90
2006,09,03,13,08,22.90
2006,09,03,13,09,22.90
2006,09,03,13,10,22.90
2006,09,03,13,11,22.90
2006,09,03,13,12,22.90
2006,09,03,13,13,23.00
2006,09,03,13,14,23.00
2006,09,03,13,15,23.00
2006,09,03,13,16,23.10
2006,09,03,13,17,23.10
2006,09,03,13,18,23.10
2006,09,03,13,19,23.10
2006,09,03,13,20,23.20
2006,09,03,13,21,23.30
2006,09,03,13,22,23.30
2006,09,03,13,23,23.30
2006,09,03,13,24,23.40
2006,09,03,13,25,23.50
2006,09,03,13,26,23.40
2006,09,03,13,27,23.50
2006,09,03,13,28,23.60
2006,09,03,13,29,23.70
2006,09,03,13,30,23.80
2006,09,03,13,31,23.80
2006,09,03,13,32,23.80
2006,09,03,13,33,23.80
2006,09,03,13,34,23.80
2006,09,03,13,35,23.70
2006,09,03,13,36,23.70
2006,09,03,13,37,23.60
2006,09,03,13,38,23.60
2006,09,03,13,39,23.70
2006,09,03,13,40,23.80
2006,09,03,13,41,23.90
2006,09,03,13,42,24.10
2006,09,03,13,43,24.20
2006,09,03,13,44,24.30
2006,09,03,13,45,24.30
2006,09,03,13,46,24.40
2006,09,03,13,47,24.40
2006,09,03,13,48,24.40
2006,09,03,13,49,24.40
2006,09,03,13,50,24.40
2006,09,03,13,51,24.40
2006,09,03,13,52,24.30
2006,09,03,13,53,24.30
2006,09,03,13,54,24.30
2006,09,03,13,55,24.40
2006,09,03,13,56,24.40
2006,09,03,13,57,24.50
2006,09,03,13,58,24.50
2006,09,03,13,59,24.60
2006,09,03,14,00,24.40
2006,09,03,14,01,24.30
2006,09,03,14,02,24.20
2006,09,03,14,03,24.10
2006,09,03,14,04,24.00
2006,09,03,14,05,24.00
2006,09,03,14,06,24.10
2006,09,03,14,07,24.10
2006,09,03,14,08,24.20
2006,09,03,14,09,24.20
2006,09,03,14,10,24.10
2006,09,03,14,11,24.10
2006,09,03,14,12,24.00
2006,09,03,14,13,23.90
2006,09,03,14,14,23.90
2006,09,03,14,15,23.80
2006,09,03,14,16,23.70
2006,09,03,14,17,23.60
2006,09,03,14,18,23.60
2006,09,03,14,19,23.60
2006,09,03,14,20,23.60
2006,09,03,14,21,23.70
2006,09,03,14,22,23.70
2006,09,03,14,23,23.80
2006,09,03,14,24,24.00
2006,09,03,14,25,24.00
2006,09,03,14,26,23.90
2006,09,03,14,27,23.70
2006,09,03,14,28,23.70
2006,09,03,14,29,23.60
2006,09,03,14,30,23.50
2006,09,03,14,31,23.40
2006,09,03,14,32,23.40
2006,09,03,14,33,23.40
2006,09,03,14,34,23.50
2006,09,03,14,35,23.40
2006,09,03,14,36,23.40
2006,09,03,14,37,23.40
2006,09,03,14,38,23.30
2006,09,03,14,39,23.30
2006,09,03,14,40,23.20
2006,09,03,14,41,23.20
2006,09,03,14,42,23.20
2006,09,03,14,43,23.20
2006,09,03,14,44,23.30
2006,09,03,14,45,23.40
2006,09,03,14,46,23.60
2006,09,03,14,47,23.50
2006,09,03,14,48,23.40
2006,09,03,14,49,23.30
2006,09,03,14,50,23.40
2006,09,03,14,51,23.50
2006,09,03,14,52,23.70
2006,09,03,14,53,23.70
2006,09,03,14,54,23.70
2006,09,03,14,55,23.70
2006,09,03,14,56,23.70
2006,09,03,14,57,23.70
2006,09,03,14,58,23.70
2006,09,03,14,59,23.70
2006,09,03,15,00,23.80
2006,09,03,15,01,23.90
2006,09,03,15,02,23.90
2006,09,03,15,03,23.90
2006,09,03,15,04,23.90
2006,09,03,15,05,24.00
2006,09,03,15,06,24.10
2006,09,03,15,07,24.20
2006,09,03,15,08,24.20
2006,09,03,15,09,24.30
2006,09,03,15,10,24.30
2006,09,03,15,11,24.40
2006,09,03,15,12,24.50
2006,09,03,15,13,24.50
2006,09,03,15,14,24.60
2006,09,03,15,15,24.70
2006,09,03,15,16,24.70
2006,09,03,15,17,24.80
2006,09,03,15,18,24.70
2006,09,03,15,19,24.60
2006,09,03,15,20,24.40
2006,09,03,15,21,24.40
2006,09,03,15,22,24.30
2006,09,03,15,23,24.20
2006,09,03,15,24,24.20
2006,09,03,15,25,24.20
2006,09,03,15,26,24.30
2006,09,03,15,27,24.30
2006,09,03,15,28,24.30
2006,09,03,15,29,24.20
2006,09,03,15,30,24.30
2006,09,03,15,31,24.40
2006,09,03,15,32,24.50
2006,09,03,15,33,24.60
2006,09,03,15,34,24.70
2006,09,03,15,35,24.70
2006,09,03,15,36,24.70
2006,09,03,15,37,24.60
2006,09,03,15,38,24.50
2006,09,03,15,39,24.50
2006,09,03,15,40,24.60
2006,09,03,15,41,24.60
2006,09,03,15,42,24.70
2006,09,03,15,43,24.80
2006,09,03,15,44,24.90
2006,09,03,15,45,24.90
2006,09,03,15,46,24.90
2006,09,03,15,47,24.90
2006,09,03,15,48,24.90
2006,09,03,15,49,24.80
2006,09,03,15,50,24.80
2006,09,03,15,51,24.90
2006,09,03,15,52,24.90
2006,09,03,15,53,24.90
2006,09,03,15,54,25.00
2006,09,03,15,55,25.10
2006,09,03,15,56,25.10
2006,09,03,15,57,25.20
2006,09,03,15,58,25.20
2006,09,03,15,59,25.20
2006,09,03,16,00,25.20
2006,09,03,16,01,25.20
2006,09,03,16,02,25.20
2006,09,03,16,03,25.20
2006,09,03,16,04,25.00
2006,09,03,16,05,25.00
2006,09,03,16,06,25.00
2006,09,03,16,07,25.00
2006,09,03,16,08,25.00
2006,09,03,16,09,25.10
2006,09,03,16,10,25.30
2006,09,03,16,11,25.40
2006,09,03,16,12,25.50
2006,09,03,16,13,25.60
2006,09,03,16,14,25.60
2006,09,03,16,15,25.70
2006,09,03,16,16,25.70
2006,09,03,16,17,25.80
2006,09,03,16,18,25.90
2006,09,03,16,19,26.00
2006,09,03,16,20,26.10
2006,09,03,16,21,26.20
2006,09,03,16,22,26.30
2006,09,03,16,23,26.40
2006,09,03,16,24,26.40
2006,09,03,16,25,26.40
2006,09,03,16,26,26.60
2006,09,03,16,27,26.60
2006,09,03,16,28,26.70
2006,09,03,16,29,26.70
2006,09,03,16,30,26.70
2006,09,03,16,31,26.60
2006,09,03,16,32,26.60
2006,09,03,16,33,26.60
2006,09,03,16,34,26.60
2006,09,03,16,35,26.60
2006,09,03,16,36,26.60
2006,09,03,16,37,26.70
2006,09,03,16,38,26.70
2006,09,03,16,39,26.60
2006,09,03,16,40,26.60
2006,09,03,16,41,26.50
2006,09,03,16,42,26.30
2006,09,03,16,43,26.40
2006,09,03,16,44,26.40
2006,09,03,16,45,26.40
2006,09,03,16,46,26.40
2006,09,03,16,47,26.40
2006,09,03,16,48,26.30
2006,09,03,16,49,26.30
2006,09,03,16,50,26.30
2006,09,03,16,51,26.30
2006,09,03,16,52,26.30
2006,09,03,16,53,26.20
2006,09,03,16,54,26.10
2006,09,03,16,55,26.00
2006,09,03,16,56,25.90
2006,09,03,16,57,25.90
2006,09,03,16,58,25.90
2006,09,03,16,59,25.80
2006,09,03,17,00,25.80
2006,09,03,17,01,25.80
2006,09,03,17,02,25.80
2006,09,03,17,03,25.80
2006,09,03,17,04,25.80
2006,09,03,17,05,25.80
2006,09,03,17,06,25.80
2006,09,03,17,07,25.70
2006,09,03,17,08,25.60
2006,09,03,17,09,25.40
2006,09,03,17,10,25.40
2006,09,03,17,11,25.30
2006,09,03,17,12,25.30
2006,09,03,17,13,25.40
2006,09,03,17,14,25.50
2006,09,03,17,15,25.50
2006,09,03,17,16,25.40
2006,09,03,17,17,25.40
2006,09,03,17,18,25.50
2006,09,03,17,19,25.60